Regional Weather Roundup
Issued by NWS Sioux Falls, SD

Home | Current Version | Previous Version | Text Only | Print | Product List | Glossary Off
Versions: 1 2 3 4 5 6 7 8 9 10 11 12 13 14 15 16 17 18 19 20 21 22 23 24 25 26 27 28 29 30 31 32 33 34 35 36 37 38 39 40 41 42 43 44 45 46 47 48 49 50

000
ASUS43 KFSD 111702
RWRFSD

WEATHER ROUNDUP FOR SE SOUTH DAKOTA/SW MINNESOTA/NW IOWA
NATIONAL WEATHER SERVICE SIOUX FALLS SD
1100 AM CST THU FEB 11 2016

NOTE: "FAIR" INDICATES FEW OR NO CLOUDS BELOW 12,000 FEET WITH NO
SIGNIFICANT WEATHER AND OR OBSTRUCTIONS TO VISIBILITY.


SDZ038>040-050-052>070-111800-
SOUTHEAST SOUTH DAKOTA

CITY           SKY/WX    TMP DP  RH WIND       PRES   REMARKS
BROOKINGS      LGT SNOW  14   8  77 S12       30.18F WCI   0
CHAMBERLAIN    CLOUDY    24  22  91 SE9       30.13R WCI  15
HURON          CLOUDY    20  15  81 SE12      30.17F WCI   8
MADISON        CLOUDY    14  10  85 S14       30.17F WCI  -1
MITCHELL       LGT SNOW  21  16  81 S17       30.18F WCI   7
SIOUX FALLS    CLOUDY    16   7  67 S10       30.23F WCI   4
WINNER         PTSUNNY   32  24  72 S12       30.09S WCI  23
YANKTON        CLOUDY    19  12  73 SE15      30.23F WCI   5
$$

MNZ071-072-080-081-089-090-097-098-111800-
SOUTHWEST MINNESOTA

CITY           SKY/WX    TMP DP  RH WIND       PRES   REMARKS
FAIRMONT       MOSUNNY    9   1  72 S9        30.29S WCI  -5
JACKSON        CLOUDY    12   0  57 S10       30.27S WCI  -1
LUVERNE        CLOUDY    18   9  68 S13       30.25F WCI   4
MARSHALL       FLURRIES  14   6  70 S9        30.25F WCI   2
MONTEVIDEO     CLOUDY    12   9  85 S6        30.28F WCI   3
PIPESTONE      CLOUDY    16   3  57 S14       30.20F WCI   1
REDWOOD FALLS  CLOUDY    12   4  70 S7        30.29F WCI   1
TRACY          CLOUDY    13   6  72 S9        30.24F WCI   1
WINDOM         CLOUDY    12   0  57 S8        30.26S WCI   1
WORTHINGTON    CLOUDY    10   1  67 S12       30.25F WCI  -4
$$

IAZ001>003-012>014-020>022-031-032-NEZ013-014-SDZ071-111800-
NORTHWEST IOWA

CITY           SKY/WX    TMP DP  RH WIND       PRES   REMARKS
DENISON        CLOUDY    14   5  67 SE6       30.30R WCI   5
ESTHERVILLE    CLOUDY     8   1  73 S13       30.29R WCI  -8
LE MARS        CLOUDY    18   9  68 S12       30.30S WCI   5
ORANGE CITY    CLOUDY    16   9  73 S7        30.26F WCI   6
SHELDON        CLOUDY    14   7  73 S12       30.26F WCI   0
SIOUX CITY     CLOUDY    19  11  70 S12       30.30S WCI   7
SPENCER        CLOUDY    13   4  67 S10       30.29R WCI   0
STORM LAKE     CLOUDY    12   5  73 S10       30.28S WCI  -1
$$

ABBREVIATIONS USED IN REMARKS
   TC - TEMPERATURE IN CELSIUS
  WCI - WIND CHILL INDEX
   HX - HEAT INDEX
  VSB - VISIBILITY




USA.gov is the U.S. government's official web portal to all federal, state and local government web resources and services.